DAL78A LPMA-ENGM

Flight info

Callsign DAL78A
Flight time 4h 20m
Altitude 38000
Route LPMA N0490F380 DEGU1E DEGUN DCT ROLAR/N0492F400 DCT VERAM DCT IBIDO DCT DEMOS DCT SOSOV DCT DOLUR/N0495F410 DCT UNFIT DCT INFEC DCT KISWO DCT AVTIC DCT ANJAK/N0495F400 N38 NOKIN UP16 RIBEL/N0498F410 DCT ALOTI DCT ZOL DCT ROPNO DCT ADOPI ADOP3M ENGM
Aircraft B748/H-L/L

Departure

Time 2026-05-06 16:44
Airport Cristiano Ronaldo International Airport (LPMA)

Arrival

Time 2026-05-06 21:05
Airport Oslo-Gardermoen International Airport (ENGM)
Time Latitude Longitude Altitude Speed Heading
2026-05-06 14:07 32.69621 -16.77329 202 ft 0 kts 137°
2026-05-06 16:29 32.69622 -16.77330 186 ft 1 kts 137°
2026-05-06 16:29 32.69639 -16.77348 204 ft 4 kts 140°
2026-05-06 16:29 32.69661 -16.77363 202 ft 4 kts 173°
2026-05-06 16:30 32.69687 -16.77360 203 ft 4 kts 209°
2026-05-06 16:30 32.69694 -16.77355 203 ft 4 kts 221°
2026-05-06 16:30 32.69698 -16.77351 203 ft 0 kts 227°
2026-05-06 16:35 32.69687 -16.77365 203 ft 6 kts 227°
2026-05-06 16:35 32.69615 -16.77454 202 ft 14 kts 226°
2026-05-06 16:35 32.69572 -16.77507 200 ft 12 kts 225°
2026-05-06 16:36 32.69520 -16.77572 195 ft 11 kts 229°
2026-05-06 16:36 32.69472 -16.77633 196 ft 9 kts 226°
2026-05-06 16:36 32.69431 -16.77684 203 ft 9 kts 226°
2026-05-06 16:36 32.69391 -16.77734 195 ft 8 kts 225°
2026-05-06 16:37 32.69357 -16.77775 200 ft 6 kts 226°
2026-05-06 16:37 32.69329 -16.77810 200 ft 6 kts 227°
2026-05-06 16:37 32.69312 -16.77832 197 ft 0 kts 228°
2026-05-06 16:37 32.69311 -16.77832 196 ft 0 kts 228°
2026-05-06 16:38 32.69311 -16.77833 196 ft 0 kts 229°
2026-05-06 16:38 32.69310 -16.77834 195 ft 0 kts 229°
2026-05-06 16:38 32.69309 -16.77836 195 ft 0 kts 230°
2026-05-06 16:38 32.69308 -16.77837 195 ft 0 kts 230°
2026-05-06 16:39 32.69308 -16.77838 194 ft 0 kts 231°
2026-05-06 16:39 32.69307 -16.77839 194 ft 0 kts 231°
2026-05-06 16:39 32.69306 -16.77841 201 ft 2 kts 233°
2026-05-06 16:39 32.69289 -16.77885 199 ft 9 kts 254°
2026-05-06 16:40 32.69285 -16.77969 198 ft 11 kts 269°
2026-05-06 16:40 32.69261 -16.78055 201 ft 13 kts 237°
2026-05-06 16:40 32.69194 -16.78141 200 ft 15 kts 225°
2026-05-06 16:40 32.69117 -16.78230 203 ft 16 kts 224°
2026-05-06 16:41 32.69036 -16.78322 203 ft 16 kts 221°
2026-05-06 16:41 32.68942 -16.78379 191 ft 15 kts 200°
2026-05-06 16:41 32.68909 -16.78430 195 ft 5 kts 269°
2026-05-06 16:41 32.68918 -16.78447 181 ft 2 kts 321°
2026-05-06 16:42 32.68932 -16.78446 187 ft 2 kts 11°
2026-05-06 16:42 32.68941 -16.78437 196 ft 1 kts 44°
2026-05-06 16:42 32.68945 -16.78432 220 ft 0 kts 42°
2026-05-06 16:43 32.68946 -16.78432 219 ft 1 kts 42°
2026-05-06 16:43 32.69014 -16.78354 204 ft 46 kts 44°
2026-05-06 16:44 32.69489 -16.77802 200 ft 142 kts 45°
2026-05-06 16:44 32.70380 -16.76752 369 ft 208 kts 42°
2026-05-06 16:44 32.71406 -16.75486 1634 ft 206 kts 46°
2026-05-06 16:44 32.72424 -16.74396 2599 ft 203 kts 31°
2026-05-06 16:45 32.73696 -16.73429 2704 ft 231 kts 35°
2026-05-06 16:45 32.75025 -16.72197 3114 ft 255 kts 39°
2026-05-06 16:45 32.76356 -16.70803 4055 ft 259 kts 39°
2026-05-06 16:45 32.77731 -16.69384 4935 ft 263 kts 37°
2026-05-06 16:46 32.79153 -16.67939 5719 ft 268 kts 36°
2026-05-06 16:46 32.80586 -16.66490 6427 ft 274 kts 37°
2026-05-06 16:46 32.82048 -16.65005 7098 ft 279 kts 38°
2026-05-06 16:46 32.83524 -16.63503 7880 ft 279 kts 37°
2026-05-06 16:47 32.85007 -16.61995 8599 ft 281 kts 38°
2026-05-06 16:47 32.86497 -16.60479 9299 ft 283 kts 38°
2026-05-06 16:47 32.87996 -16.58954 9976 ft 285 kts 38°
2026-05-06 16:47 32.89502 -16.57423 10552 ft 292 kts 38°
2026-05-06 16:48 32.91100 -16.55797 10964 ft 305 kts 38°
2026-05-06 16:48 32.92756 -16.54112 11276 ft 322 kts 38°
2026-05-06 16:48 32.94504 -16.52329 11585 ft 340 kts 38°
2026-05-06 16:48 32.96348 -16.50447 11922 ft 358 kts 38°
2026-05-06 16:49 32.98284 -16.48472 12273 ft 373 kts 38°
2026-05-06 16:49 33.00278 -16.46434 12807 ft 381 kts 38°
2026-05-06 16:49 33.02308 -16.44359 13433 ft 387 kts 38°
2026-05-06 16:49 33.04339 -16.42282 14052 ft 392 kts 38°
2026-05-06 16:50 33.06421 -16.40153 14623 ft 396 kts 38°
2026-05-06 16:50 33.08522 -16.38001 15196 ft 400 kts 38°
2026-05-06 16:50 33.10646 -16.35825 15775 ft 403 kts 38°
2026-05-06 16:50 33.12784 -16.33634 16355 ft 407 kts 38°
2026-05-06 16:51 33.14945 -16.31417 16898 ft 410 kts 38°
2026-05-06 16:51 33.17114 -16.29190 17444 ft 414 kts 37°
2026-05-06 16:51 33.19310 -16.26936 18048 ft 418 kts 38°
2026-05-06 16:51 33.21525 -16.24662 18590 ft 421 kts 37°
2026-05-06 16:52 33.23752 -16.22365 19041 ft 424 kts 37°
2026-05-06 16:52 33.25986 -16.20065 19476 ft 425 kts 37°
2026-05-06 16:52 33.28235 -16.17750 19925 ft 427 kts 37°
2026-05-06 16:52 33.30491 -16.15426 20345 ft 429 kts 37°
2026-05-06 16:53 33.32754 -16.13091 20777 ft 430 kts 37°
2026-05-06 16:53 33.35021 -16.10749 21197 ft 431 kts 37°
2026-05-06 16:53 33.37292 -16.08404 21595 ft 433 kts 37°
2026-05-06 16:53 33.39580 -16.06040 22013 ft 434 kts 37°
2026-05-06 16:54 33.41840 -16.03702 22437 ft 436 kts 37°
2026-05-06 16:54 33.44136 -16.01324 22828 ft 437 kts 37°
2026-05-06 16:54 33.46442 -15.98934 23202 ft 438 kts 36°
2026-05-06 16:54 33.48754 -15.96538 23495 ft 441 kts 36°
2026-05-06 16:55 33.51079 -15.94127 23756 ft 443 kts 36°
2026-05-06 16:55 33.53415 -15.91701 23982 ft 445 kts 36°
2026-05-06 16:55 33.55760 -15.89264 24223 ft 447 kts 36°
2026-05-06 16:55 33.58113 -15.86817 24463 ft 449 kts 36°
2026-05-06 16:56 33.60474 -15.84360 24686 ft 450 kts 36°
2026-05-06 16:56 33.62840 -15.81896 24917 ft 451 kts 36°
2026-05-06 16:56 33.65212 -15.79424 25141 ft 452 kts 36°
2026-05-06 16:56 33.67588 -15.76945 25365 ft 453 kts 36°
2026-05-06 16:57 33.69969 -15.74460 25599 ft 454 kts 36°
2026-05-06 16:57 33.72354 -15.71969 25858 ft 455 kts 36°
2026-05-06 16:57 33.74747 -15.69466 26119 ft 455 kts 36°
2026-05-06 16:57 33.77139 -15.66965 26379 ft 456 kts 36°
2026-05-06 16:58 33.79507 -15.64485 26647 ft 457 kts 36°
2026-05-06 16:58 33.81908 -15.61970 26931 ft 459 kts 36°
2026-05-06 16:58 33.84318 -15.59444 27199 ft 460 kts 36°
2026-05-06 16:58 33.86736 -15.56906 27449 ft 462 kts 36°
2026-05-06 16:59 33.89162 -15.54357 27734 ft 464 kts 36°
2026-05-06 16:59 33.91603 -15.51792 28024 ft 465 kts 36°
2026-05-06 16:59 33.94046 -15.49222 28328 ft 467 kts 36°
2026-05-06 16:59 33.96496 -15.46642 28650 ft 469 kts 36°
2026-05-06 17:00 33.98959 -15.44047 28988 ft 470 kts 36°
2026-05-06 17:00 34.01428 -15.41444 29356 ft 472 kts 35°
2026-05-06 17:00 34.03903 -15.38832 29722 ft 473 kts 35°
2026-05-06 17:00 34.06384 -15.36212 30109 ft 475 kts 35°
2026-05-06 17:01 34.08874 -15.33581 30443 ft 477 kts 35°
2026-05-06 17:01 34.11373 -15.30937 30749 ft 479 kts 36°
2026-05-06 17:01 34.13885 -15.28277 31137 ft 479 kts 36°
2026-05-06 17:01 34.16382 -15.25629 31605 ft 478 kts 36°
2026-05-06 17:02 34.18887 -15.22973 32059 ft 478 kts 35°
2026-05-06 17:02 34.21511 -15.20581 32527 ft 470 kts 27°
2026-05-06 17:02 34.24370 -15.18715 32974 ft 466 kts 21°
2026-05-06 17:03 34.30229 -15.15328 33087 ft 465 kts 21°
2026-05-06 17:03 34.36050 -15.11960 33071 ft 462 kts 21°
2026-05-06 17:04 34.41816 -15.08619 33077 ft 462 kts 21°
2026-05-06 17:04 34.47612 -15.05254 33072 ft 462 kts 21°
2026-05-06 17:05 34.53408 -15.01884 33076 ft 462 kts 21°
2026-05-06 17:05 34.59203 -14.98510 33089 ft 461 kts 21°
2026-05-06 17:06 34.64990 -14.95135 33086 ft 461 kts 21°
2026-05-06 17:06 34.70789 -14.91749 33073 ft 465 kts 21°
2026-05-06 17:07 34.76629 -14.88331 33088 ft 465 kts 21°
2026-05-06 17:07 34.82463 -14.84913 33094 ft 465 kts 21°
2026-05-06 17:08 34.88291 -14.81492 33085 ft 465 kts 21°
2026-05-06 17:08 34.94116 -14.78069 33083 ft 465 kts 21°
2026-05-06 17:09 34.99944 -14.74637 33084 ft 465 kts 21°
2026-05-06 17:09 35.05766 -14.71204 33084 ft 465 kts 21°
2026-05-06 17:10 35.11595 -14.67761 33081 ft 465 kts 21°
2026-05-06 17:10 35.17412 -14.64320 33079 ft 465 kts 21°
2026-05-06 17:11 35.23200 -14.60891 33082 ft 465 kts 21°
2026-05-06 17:11 35.29014 -14.57440 33094 ft 465 kts 21°
2026-05-06 17:12 35.34860 -14.53966 33078 ft 467 kts 21°
2026-05-06 17:12 35.40710 -14.50482 33077 ft 465 kts 21°
2026-05-06 17:13 35.46526 -14.47015 33071 ft 465 kts 21°
2026-05-06 17:13 35.52346 -14.43538 33072 ft 465 kts 21°
2026-05-06 17:14 35.58165 -14.40057 33073 ft 465 kts 21°
2026-05-06 17:14 35.63985 -14.36569 33095 ft 465 kts 21°
2026-05-06 17:15 35.69799 -14.33079 33072 ft 465 kts 21°
2026-05-06 17:15 35.74631 -14.30175 33072 ft 465 kts 21°
2026-05-06 17:16 35.81389 -14.26105 33073 ft 465 kts 21°
2026-05-06 17:16 35.87200 -14.22601 33074 ft 465 kts 21°
2026-05-06 17:17 35.92089 -14.19650 33067 ft 469 kts 21°
2026-05-06 17:17 35.97940 -14.16107 33072 ft 468 kts 21°
2026-05-06 17:18 36.03787 -14.12565 33072 ft 468 kts 21°
2026-05-06 17:18 36.09639 -14.09011 33075 ft 469 kts 21°
2026-05-06 17:19 36.15459 -14.05473 33076 ft 469 kts 21°
2026-05-06 17:19 36.21321 -14.01903 33073 ft 470 kts 21°
2026-05-06 17:20 36.27182 -13.98327 33078 ft 470 kts 21°
2026-05-06 17:20 36.33044 -13.94746 33075 ft 470 kts 21°
2026-05-06 17:21 36.38910 -13.91154 33073 ft 470 kts 21°
2026-05-06 17:21 36.44764 -13.87565 33070 ft 469 kts 21°
2026-05-06 17:22 36.50647 -13.83954 33073 ft 477 kts 21°
2026-05-06 17:22 36.56577 -13.80302 33075 ft 474 kts 22°
2026-05-06 17:23 36.62497 -13.76655 33073 ft 474 kts 22°
2026-05-06 17:23 36.68417 -13.72999 33081 ft 475 kts 22°
2026-05-06 17:24 36.74332 -13.69341 33073 ft 475 kts 22°
2026-05-06 17:24 36.80102 -13.65281 33070 ft 478 kts 28°
2026-05-06 17:25 36.85719 -13.60815 33073 ft 479 kts 27°
2026-05-06 17:25 36.91348 -13.56349 33056 ft 479 kts 27°
2026-05-06 17:26 36.96934 -13.51900 33058 ft 479 kts 27°
2026-05-06 17:26 37.02582 -13.47400 33073 ft 484 kts 28°
2026-05-06 17:27 37.08251 -13.42869 33066 ft 484 kts 28°
2026-05-06 17:27 37.13930 -13.38326 33070 ft 484 kts 28°
2026-05-06 17:28 37.19608 -13.33773 33067 ft 484 kts 28°
2026-05-06 17:28 37.25283 -13.29216 33061 ft 484 kts 28°
2026-05-06 17:29 37.30964 -13.24645 33063 ft 484 kts 28°
2026-05-06 17:29 37.36601 -13.20102 33064 ft 484 kts 28°
2026-05-06 17:30 37.42275 -13.15520 33063 ft 485 kts 28°
2026-05-06 17:30 37.47964 -13.10919 33066 ft 488 kts 28°
2026-05-06 17:31 37.53675 -13.06289 33068 ft 488 kts 28°
2026-05-06 17:31 37.59390 -13.01649 33063 ft 489 kts 28°
2026-05-06 17:32 37.65102 -12.97003 33065 ft 489 kts 28°
2026-05-06 17:32 37.70822 -12.92341 33065 ft 489 kts 28°
2026-05-06 17:33 37.76528 -12.87682 33058 ft 489 kts 28°
2026-05-06 17:33 37.82240 -12.83010 33060 ft 489 kts 28°
2026-05-06 17:34 37.87957 -12.78325 33061 ft 489 kts 28°
2026-05-06 17:34 37.93707 -12.73606 33061 ft 495 kts 28°
2026-05-06 17:35 37.99437 -12.68887 33049 ft 495 kts 28°
2026-05-06 17:35 38.05264 -12.64088 33050 ft 496 kts 28°
2026-05-06 17:36 38.13952 -12.56909 33050 ft 497 kts 28°
2026-05-06 17:36 38.19705 -12.52144 33051 ft 497 kts 28°
2026-05-06 17:37 38.25493 -12.47340 33053 ft 496 kts 28°
2026-05-06 17:37 38.31270 -12.42539 33054 ft 495 kts 28°
2026-05-06 17:38 38.37073 -12.37708 33055 ft 504 kts 28°
2026-05-06 17:38 38.42928 -12.32817 33050 ft 504 kts 28°
2026-05-06 17:39 38.48795 -12.27912 33051 ft 504 kts 28°
2026-05-06 17:39 38.54647 -12.23008 33048 ft 503 kts 28°
2026-05-06 17:40 38.60496 -12.18098 33048 ft 503 kts 28°
2026-05-06 17:40 38.66344 -12.13178 33048 ft 503 kts 28°
2026-05-06 17:41 38.72202 -12.08240 33048 ft 503 kts 28°
2026-05-06 17:41 38.78043 -12.03307 33043 ft 505 kts 29°
2026-05-06 17:42 38.83935 -11.98321 33042 ft 507 kts 29°
2026-05-06 17:42 38.89788 -11.93357 33042 ft 507 kts 29°
2026-05-06 17:43 38.95673 -11.88358 33040 ft 507 kts 29°
2026-05-06 17:43 39.01554 -11.83350 33040 ft 506 kts 30°
2026-05-06 17:44 39.07433 -11.78335 33045 ft 507 kts 30°
2026-05-06 17:44 39.13318 -11.73303 33040 ft 507 kts 30°
2026-05-06 17:45 39.19194 -11.68270 33039 ft 507 kts 30°
2026-05-06 17:45 39.25066 -11.63229 33034 ft 506 kts 30°
2026-05-06 17:46 39.30915 -11.58198 33029 ft 505 kts 30°
2026-05-06 17:46 39.36760 -11.53160 33029 ft 505 kts 30°
2026-05-06 17:47 39.42603 -11.48114 33029 ft 505 kts 30°
2026-05-06 17:47 39.48445 -11.43059 33027 ft 505 kts 30°
2026-05-06 17:48 39.54278 -11.37999 33029 ft 505 kts 30°
2026-05-06 17:48 39.60111 -11.32931 33027 ft 505 kts 30°
2026-05-06 17:49 39.65980 -11.27822 33035 ft 510 kts 31°
2026-05-06 17:49 39.71861 -11.22687 33043 ft 509 kts 31°
2026-05-06 17:50 39.77720 -11.17565 33034 ft 507 kts 31°
2026-05-06 17:50 39.83569 -11.12440 33030 ft 507 kts 31°
2026-05-06 17:51 39.89415 -11.07306 33026 ft 507 kts 31°
2026-05-06 17:51 39.95260 -11.02163 33041 ft 507 kts 32°
2026-05-06 17:52 40.01063 -10.97045 33026 ft 507 kts 32°
2026-05-06 17:52 40.06912 -10.91878 33025 ft 511 kts 32°
2026-05-06 17:53 40.12794 -10.86669 33022 ft 511 kts 32°
2026-05-06 17:53 40.18673 -10.81452 33027 ft 511 kts 32°
2026-05-06 17:54 40.24550 -10.76225 33022 ft 511 kts 32°
2026-05-06 17:54 40.30440 -10.70977 33013 ft 511 kts 32°
2026-05-06 17:55 40.36320 -10.65725 33019 ft 511 kts 32°
2026-05-06 17:55 40.42199 -10.60463 33030 ft 511 kts 32°
2026-05-06 17:56 40.48075 -10.55194 32999 ft 516 kts 33°
2026-05-06 17:56 40.53988 -10.49877 33017 ft 514 kts 33°
2026-05-06 17:57 40.59892 -10.44559 32999 ft 514 kts 33°
2026-05-06 17:57 40.65751 -10.39269 33015 ft 513 kts 33°
2026-05-06 17:58 40.71624 -10.33955 33000 ft 512 kts 33°
2026-05-06 17:58 40.77507 -10.28621 33002 ft 512 kts 33°
2026-05-06 17:59 40.83381 -10.23284 32999 ft 512 kts 33°
2026-05-06 17:59 40.89287 -10.18002 33019 ft 516 kts 30°
2026-05-06 18:00 40.95474 -10.13204 33001 ft 514 kts 29°
2026-05-06 18:00 41.00588 -10.09215 32999 ft 514 kts 30°
2026-05-06 18:01 41.06746 -10.04395 33000 ft 513 kts 29°
2026-05-06 18:01 41.12905 -9.99577 33009 ft 513 kts 30°
2026-05-06 18:02 41.19041 -9.94756 33003 ft 512 kts 30°
2026-05-06 18:02 41.25174 -9.89935 33003 ft 512 kts 30°
2026-05-06 18:03 41.31316 -9.85090 33003 ft 513 kts 30°
2026-05-06 18:03 41.37456 -9.80241 33002 ft 515 kts 30°
2026-05-06 18:04 41.43556 -9.75408 33001 ft 513 kts 30°
2026-05-06 18:04 41.49687 -9.70543 33001 ft 512 kts 30°
2026-05-06 18:05 41.55814 -9.65669 32995 ft 513 kts 30°
2026-05-06 18:05 41.61942 -9.60784 32995 ft 513 kts 30°
2026-05-06 18:06 41.68064 -9.55893 33001 ft 512 kts 30°
2026-05-06 18:06 41.74177 -9.50998 32991 ft 511 kts 30°
2026-05-06 18:07 41.80287 -9.46094 32982 ft 512 kts 30°
2026-05-06 18:07 41.86390 -9.41185 32990 ft 512 kts 31°
2026-05-06 18:08 41.92534 -9.36370 33015 ft 511 kts 24°
2026-05-06 18:08 41.99207 -9.33141 32987 ft 509 kts 17°
2026-05-06 18:09 42.02566 -9.31634 33145 ft 510 kts 18°
2026-05-06 18:09 42.05928 -9.30082 33594 ft 510 kts 18°
2026-05-06 18:09 42.09280 -9.28516 33998 ft 510 kts 18°
2026-05-06 18:09 42.12637 -9.26969 34353 ft 510 kts 17°
2026-05-06 18:10 42.15991 -9.25435 34703 ft 510 kts 18°
2026-05-06 18:10 42.19339 -9.23891 34968 ft 509 kts 17°
2026-05-06 18:10 42.26008 -9.20795 34980 ft 507 kts 18°
2026-05-06 18:11 42.32659 -9.17716 34980 ft 504 kts 18°
2026-05-06 18:11 42.39289 -9.14632 34981 ft 504 kts 18°
2026-05-06 18:12 42.45913 -9.11548 34983 ft 503 kts 18°
2026-05-06 18:12 42.52555 -9.08446 34985 ft 503 kts 18°
2026-05-06 18:13 42.59135 -9.05367 35368 ft 504 kts 18°
2026-05-06 18:13 42.62494 -9.03792 35734 ft 504 kts 18°
2026-05-06 18:13 42.65761 -9.02260 35983 ft 503 kts 18°
2026-05-06 18:14 42.72371 -8.99152 35982 ft 501 kts 18°
2026-05-06 18:14 42.78957 -8.96050 35988 ft 501 kts 18°
2026-05-06 18:15 42.85551 -8.92937 35988 ft 501 kts 18°
2026-05-06 18:15 42.92133 -8.89821 35993 ft 500 kts 18°
2026-05-06 18:16 42.98709 -8.86703 35999 ft 500 kts 18°
2026-05-06 18:16 43.05283 -8.83578 36005 ft 500 kts 18°
2026-05-06 18:17 43.11862 -8.80443 36007 ft 499 kts 18°
2026-05-06 18:17 43.18422 -8.77311 36017 ft 500 kts 18°
2026-05-06 18:18 43.24985 -8.74169 36017 ft 500 kts 18°
2026-05-06 18:18 43.31552 -8.71019 36022 ft 499 kts 18°
2026-05-06 18:19 43.38051 -8.67894 36017 ft 498 kts 18°
2026-05-06 18:19 43.44604 -8.64736 36017 ft 498 kts 18°
2026-05-06 18:20 43.51145 -8.61577 36019 ft 498 kts 18°
2026-05-06 18:20 43.57672 -8.58416 36019 ft 497 kts 18°
2026-05-06 18:21 43.64205 -8.55246 36026 ft 497 kts 18°
2026-05-06 18:21 43.70733 -8.52071 36022 ft 497 kts 18°
2026-05-06 18:22 43.77261 -8.48889 36018 ft 497 kts 18°
2026-05-06 18:22 43.83790 -8.45698 36018 ft 497 kts 18°
2026-05-06 18:23 43.90318 -8.42501 36017 ft 497 kts 18°
2026-05-06 18:23 43.96800 -8.39319 36021 ft 497 kts 18°
2026-05-06 18:24 44.03330 -8.36106 36022 ft 497 kts 18°
2026-05-06 18:24 44.09860 -8.32885 36016 ft 497 kts 18°
2026-05-06 18:25 44.16363 -8.29670 36019 ft 496 kts 18°
2026-05-06 18:25 44.22866 -8.26448 36020 ft 496 kts 18°
2026-05-06 18:26 44.29376 -8.23214 36027 ft 496 kts 18°
2026-05-06 18:26 44.35875 -8.19979 36023 ft 496 kts 18°
2026-05-06 18:27 44.42374 -8.16736 36025 ft 496 kts 18°
2026-05-06 18:27 44.48872 -8.13485 36024 ft 496 kts 19°
2026-05-06 18:28 44.55378 -8.10223 36026 ft 496 kts 19°
2026-05-06 18:28 44.61876 -8.06957 36027 ft 496 kts 19°
2026-05-06 18:29 44.68374 -8.03683 36024 ft 496 kts 19°
2026-05-06 18:29 44.74878 -8.00398 36024 ft 496 kts 19°
2026-05-06 18:30 44.81337 -7.97129 36025 ft 496 kts 19°
2026-05-06 18:30 44.87836 -7.93831 36027 ft 496 kts 19°
2026-05-06 18:31 44.94330 -7.90528 36027 ft 496 kts 19°
2026-05-06 18:31 45.00794 -7.87045 36027 ft 497 kts 21°
2026-05-06 18:32 45.07212 -7.83402 36028 ft 496 kts 21°
2026-05-06 18:32 45.13608 -7.79699 36024 ft 497 kts 21°
2026-05-06 18:33 45.19973 -7.76031 36028 ft 496 kts 21°
2026-05-06 18:33 45.26369 -7.72329 36027 ft 496 kts 21°
2026-05-06 18:34 45.32759 -7.68621 36034 ft 496 kts 21°
2026-05-06 18:34 45.39151 -7.64906 36034 ft 496 kts 21°
2026-05-06 18:35 45.45541 -7.61179 36036 ft 496 kts 21°
2026-05-06 18:35 45.51930 -7.57446 36033 ft 496 kts 21°
2026-05-06 18:36 45.58320 -7.53702 36024 ft 497 kts 21°
2026-05-06 18:36 45.64710 -7.49950 36023 ft 496 kts 21°
2026-05-06 18:37 45.70024 -7.46822 36034 ft 497 kts 21°
2026-05-06 18:37 45.77488 -7.42417 36020 ft 496 kts 21°
2026-05-06 18:38 45.83874 -7.38639 36023 ft 496 kts 21°
2026-05-06 18:38 45.90259 -7.34852 36022 ft 496 kts 21°
2026-05-06 18:39 45.96603 -7.31080 36027 ft 497 kts 21°
2026-05-06 18:40 46.06184 -7.25365 36026 ft 497 kts 21°
2026-05-06 18:40 46.12569 -7.21544 36024 ft 497 kts 21°
2026-05-06 18:41 46.18962 -7.17709 36033 ft 497 kts 21°
2026-05-06 18:41 46.25338 -7.13875 36034 ft 496 kts 21°
2026-05-06 18:42 46.31712 -7.10032 36029 ft 496 kts 21°
2026-05-06 18:42 46.38086 -7.06179 36032 ft 496 kts 21°
2026-05-06 18:43 46.44451 -7.02323 36033 ft 496 kts 21°
2026-05-06 18:43 46.50788 -6.98473 36031 ft 496 kts 21°
2026-05-06 18:44 46.57158 -6.94593 36033 ft 496 kts 21°
2026-05-06 18:44 46.63527 -6.90704 36035 ft 496 kts 21°
2026-05-06 18:45 46.69889 -6.86809 36029 ft 495 kts 21°
2026-05-06 18:45 46.76244 -6.82909 36029 ft 495 kts 21°
2026-05-06 18:46 46.82607 -6.78994 36029 ft 496 kts 21°
2026-05-06 18:46 46.88965 -6.75072 36030 ft 496 kts 21°
2026-05-06 18:47 46.94249 -6.71804 36028 ft 496 kts 21°
2026-05-06 18:47 47.00602 -6.67867 36029 ft 496 kts 21°
2026-05-06 18:48 47.06952 -6.63920 36030 ft 496 kts 21°
2026-05-06 18:48 47.13303 -6.59963 36031 ft 496 kts 22°
2026-05-06 18:49 47.19654 -6.55996 36031 ft 495 kts 21°
2026-05-06 18:49 47.25990 -6.52028 36030 ft 495 kts 21°
2026-05-06 18:50 47.32281 -6.48077 36030 ft 495 kts 22°
2026-05-06 18:50 47.38620 -6.44087 36032 ft 495 kts 22°
2026-05-06 18:51 47.44950 -6.40090 36032 ft 495 kts 22°
2026-05-06 18:51 47.51287 -6.36080 36032 ft 495 kts 22°
2026-05-06 18:52 47.57615 -6.32065 36034 ft 495 kts 22°
2026-05-06 18:52 47.63947 -6.28035 36029 ft 495 kts 22°
2026-05-06 18:53 47.70265 -6.24005 36030 ft 494 kts 22°
2026-05-06 18:53 47.76585 -6.19963 36030 ft 494 kts 22°
2026-05-06 18:54 47.82896 -6.15915 36027 ft 494 kts 22°
2026-05-06 18:54 47.89207 -6.11858 36024 ft 494 kts 22°
2026-05-06 18:55 47.95516 -6.07790 36027 ft 494 kts 22°
2026-05-06 18:55 48.01824 -6.03712 36027 ft 494 kts 22°
2026-05-06 18:56 48.08138 -5.99619 36028 ft 494 kts 22°
2026-05-06 18:56 48.14406 -5.95545 36029 ft 493 kts 22°
2026-05-06 18:57 48.20700 -5.91444 36029 ft 493 kts 22°
2026-05-06 18:57 48.26992 -5.87333 36029 ft 493 kts 22°
2026-05-06 18:58 48.33282 -5.83211 36024 ft 493 kts 22°
2026-05-06 18:58 48.39576 -5.79076 36023 ft 493 kts 22°
2026-05-06 18:59 48.45872 -5.74929 36024 ft 493 kts 22°
2026-05-06 18:59 48.52159 -5.70775 36028 ft 493 kts 22°
2026-05-06 19:00 48.58444 -5.66613 36024 ft 493 kts 22°
2026-05-06 19:00 48.64724 -5.62442 36027 ft 493 kts 22°
2026-05-06 19:01 48.70996 -5.58265 36029 ft 492 kts 22°
2026-05-06 19:01 48.77275 -5.54072 36030 ft 493 kts 22°
2026-05-06 19:02 48.83511 -5.49896 36027 ft 492 kts 22°
2026-05-06 19:02 48.89793 -5.45678 36030 ft 492 kts 22°
2026-05-06 19:03 48.96060 -5.41458 36028 ft 493 kts 22°
2026-05-06 19:03 49.02325 -5.37229 36022 ft 492 kts 22°
2026-05-06 19:04 49.08586 -5.32990 36020 ft 492 kts 22°
2026-05-06 19:04 49.14858 -5.28731 36017 ft 492 kts 22°
2026-05-06 19:05 49.21078 -5.24496 36019 ft 492 kts 22°
2026-05-06 19:05 49.27328 -5.20230 36009 ft 492 kts 22°
2026-05-06 19:06 49.33586 -5.15946 36014 ft 492 kts 22°
2026-05-06 19:06 49.39836 -5.11655 36014 ft 492 kts 22°
2026-05-06 19:07 49.46089 -5.07350 36009 ft 492 kts 22°
2026-05-06 19:07 49.52581 -5.04180 36010 ft 490 kts 11°
2026-05-06 19:08 49.59213 -5.01780 36017 ft 489 kts 11°
2026-05-06 19:08 49.65835 -4.99316 35997 ft 490 kts 11°
2026-05-06 19:09 49.72471 -4.96871 36003 ft 490 kts 11°
2026-05-06 19:09 49.79106 -4.94404 36004 ft 490 kts 12°
2026-05-06 19:10 49.85690 -4.91956 36006 ft 490 kts 11°
2026-05-06 19:10 49.92318 -4.89482 36012 ft 490 kts 12°
2026-05-06 19:11 49.98956 -4.86998 36010 ft 490 kts 12°
2026-05-06 19:11 50.05577 -4.84513 36011 ft 490 kts 12°
2026-05-06 19:12 50.12213 -4.82016 36009 ft 490 kts 12°
2026-05-06 19:12 50.18836 -4.79517 36016 ft 490 kts 12°
2026-05-06 19:13 50.25460 -4.77009 36017 ft 490 kts 12°
2026-05-06 19:13 50.32082 -4.74496 36020 ft 490 kts 12°
2026-05-06 19:14 50.38699 -4.71977 36022 ft 489 kts 12°
2026-05-06 19:14 50.45272 -4.69468 36022 ft 489 kts 12°
2026-05-06 19:15 50.51887 -4.66935 36015 ft 489 kts 12°
2026-05-06 19:15 50.58499 -4.64396 36009 ft 490 kts 12°
2026-05-06 19:16 50.65113 -4.61849 36008 ft 489 kts 12°
2026-05-06 19:16 50.71726 -4.59296 36004 ft 489 kts 12°
2026-05-06 19:17 50.78344 -4.56732 36008 ft 489 kts 12°
2026-05-06 19:17 50.84953 -4.54165 36007 ft 489 kts 12°
2026-05-06 19:18 50.91557 -4.51592 36006 ft 489 kts 12°
2026-05-06 19:18 50.98163 -4.49011 36007 ft 489 kts 12°
2026-05-06 19:19 51.04722 -4.46441 36009 ft 489 kts 12°
2026-05-06 19:19 51.11326 -4.43845 36008 ft 489 kts 12°
2026-05-06 19:20 51.17928 -4.41243 36004 ft 489 kts 12°
2026-05-06 19:20 51.24536 -4.38630 36010 ft 489 kts 12°
2026-05-06 19:21 51.31125 -4.36017 36003 ft 486 kts 12°
2026-05-06 19:21 51.37674 -4.33413 36002 ft 485 kts 12°
2026-05-06 19:22 51.44010 -4.29754 36018 ft 490 kts 30°
2026-05-06 19:22 51.49785 -4.23911 36012 ft 492 kts 31°
2026-05-06 19:23 51.55554 -4.18088 36012 ft 488 kts 28°
2026-05-06 19:23 51.61368 -4.12581 36002 ft 488 kts 29°
2026-05-06 19:24 51.67210 -4.07010 36008 ft 488 kts 29°
2026-05-06 19:24 51.73065 -4.01439 36009 ft 488 kts 29°
2026-05-06 19:25 51.78894 -3.95850 36010 ft 486 kts 29°
2026-05-06 19:25 51.84718 -3.90269 36010 ft 486 kts 29°
2026-05-06 19:26 51.90549 -3.84650 36015 ft 488 kts 29°
2026-05-06 19:26 51.96383 -3.79019 36015 ft 488 kts 29°
2026-05-06 19:27 52.02210 -3.73373 36013 ft 486 kts 29°
2026-05-06 19:27 52.08009 -3.67739 36010 ft 484 kts 29°
2026-05-06 19:28 52.13751 -3.62144 36009 ft 484 kts 30°
2026-05-06 19:28 52.19533 -3.56491 36009 ft 484 kts 30°
2026-05-06 19:29 52.25305 -3.50831 36009 ft 483 kts 30°
2026-05-06 19:29 52.31054 -3.45176 36013 ft 482 kts 30°
2026-05-06 19:30 52.36824 -3.39485 36011 ft 484 kts 30°
2026-05-06 19:30 52.42592 -3.33776 36016 ft 484 kts 30°
2026-05-06 19:31 52.48355 -3.28056 36022 ft 484 kts 30°
2026-05-06 19:31 52.56000 -3.20438 36013 ft 482 kts 30°
2026-05-06 19:32 52.61900 -3.15280 36021 ft 480 kts 17°
2026-05-06 19:32 52.65126 -3.13966 36025 ft 477 kts
2026-05-06 19:32 52.68434 -3.13532 36013 ft 477 kts
2026-05-06 19:33 52.71713 -3.12716 36023 ft 479 kts 14°
2026-05-06 19:33 52.74856 -3.10886 36027 ft 479 kts 23°
2026-05-06 19:33 52.80886 -3.06203 36017 ft 478 kts 24°
2026-05-06 19:34 52.86910 -3.01468 36019 ft 480 kts 24°
2026-05-06 19:34 52.93076 -2.97191 36023 ft 480 kts 19°
2026-05-06 19:35 52.99317 -2.93426 36023 ft 479 kts 19°
2026-05-06 19:35 53.05545 -2.89581 36026 ft 476 kts 19°
2026-05-06 19:36 53.11763 -2.85767 36029 ft 476 kts 19°
2026-05-06 19:36 53.17963 -2.81922 36028 ft 476 kts 19°
2026-05-06 19:37 53.24170 -2.78076 36024 ft 475 kts 19°
2026-05-06 19:37 53.30354 -2.74225 36031 ft 474 kts 19°
2026-05-06 19:38 53.36532 -2.70370 36034 ft 474 kts 19°
2026-05-06 19:38 53.42714 -2.66498 36037 ft 474 kts 19°
2026-05-06 19:39 53.48894 -2.62613 36023 ft 474 kts 19°
2026-05-06 19:39 53.55073 -2.58711 36027 ft 474 kts 19°
2026-05-06 19:40 53.61288 -2.54778 36022 ft 477 kts 19°
2026-05-06 19:40 53.67512 -2.50826 36023 ft 478 kts 19°
2026-05-06 19:41 53.73729 -2.46870 36025 ft 477 kts 19°
2026-05-06 19:41 53.79890 -2.42937 36026 ft 476 kts 19°
2026-05-06 19:42 53.86082 -2.38970 36028 ft 476 kts 19°
2026-05-06 19:42 53.92269 -2.34995 36027 ft 476 kts 19°
2026-05-06 19:43 53.98500 -2.30978 36041 ft 475 kts 19°
2026-05-06 19:43 54.04229 -2.25502 36049 ft 480 kts 35°
2026-05-06 19:44 54.09495 -2.18501 36044 ft 480 kts 36°
2026-05-06 19:44 54.14755 -2.11482 36046 ft 480 kts 35°
2026-05-06 19:45 54.20050 -2.04405 36047 ft 484 kts 36°
2026-05-06 19:45 54.25338 -1.97297 36050 ft 482 kts 35°
2026-05-06 19:46 54.30610 -1.90204 36049 ft 481 kts 35°
2026-05-06 19:46 54.35866 -1.83096 36052 ft 481 kts 36°
2026-05-06 19:47 54.41123 -1.75970 36052 ft 482 kts 36°
2026-05-06 19:47 54.46371 -1.68828 36076 ft 482 kts 36°
2026-05-06 19:48 54.51624 -1.61657 36085 ft 480 kts 35°
2026-05-06 19:48 54.56894 -1.54441 36077 ft 485 kts 36°
2026-05-06 19:49 54.62171 -1.47184 36069 ft 485 kts 36°
2026-05-06 19:49 54.67449 -1.39907 36063 ft 485 kts 36°
2026-05-06 19:50 54.72687 -1.32657 36064 ft 486 kts 36°
2026-05-06 19:50 54.77952 -1.25345 36069 ft 485 kts 36°
2026-05-06 19:51 54.83218 -1.18009 36065 ft 485 kts 36°
2026-05-06 19:51 54.88470 -1.10665 36067 ft 485 kts 36°
2026-05-06 19:52 54.93762 -1.03242 36074 ft 490 kts 36°
2026-05-06 19:52 54.99058 -0.95782 36074 ft 490 kts 36°
2026-05-06 19:53 55.04355 -0.88299 36071 ft 489 kts 36°
2026-05-06 19:53 55.09642 -0.80802 36072 ft 490 kts 36°
2026-05-06 19:54 55.14889 -0.73336 36078 ft 490 kts 36°
2026-05-06 19:54 55.20173 -0.65792 36078 ft 490 kts 36°
2026-05-06 19:55 55.25453 -0.58224 36081 ft 490 kts 36°
2026-05-06 19:55 55.30721 -0.50649 36077 ft 490 kts 36°
2026-05-06 19:56 55.35987 -0.43050 36078 ft 490 kts 36°
2026-05-06 19:56 55.41248 -0.35431 36081 ft 490 kts 36°
2026-05-06 19:57 55.46504 -0.27791 36081 ft 490 kts 36°
2026-05-06 19:57 55.51756 -0.20129 36082 ft 490 kts 36°
2026-05-06 19:58 55.57006 -0.12444 36079 ft 491 kts 36°
2026-05-06 19:58 55.62255 -0.04732 36078 ft 491 kts 36°
2026-05-06 19:59 55.67513 0.03017 36082 ft 496 kts 36°
2026-05-06 19:59 55.72802 0.10849 36078 ft 493 kts 36°
2026-05-06 20:00 55.78061 0.18658 36071 ft 493 kts 36°
2026-05-06 20:00 55.83329 0.26511 36069 ft 494 kts 36°
2026-05-06 20:01 55.88562 0.34340 36072 ft 494 kts 36°
2026-05-06 20:01 55.93849 0.42279 36070 ft 494 kts 36°
2026-05-06 20:02 55.99074 0.50154 36072 ft 494 kts 36°
2026-05-06 20:02 56.04354 0.58141 36080 ft 496 kts 36°
2026-05-06 20:03 56.09613 0.66126 36081 ft 498 kts 37°
2026-05-06 20:03 56.14903 0.74189 36083 ft 499 kts 37°
2026-05-06 20:04 56.20189 0.82275 36084 ft 499 kts 37°
2026-05-06 20:04 56.25471 0.90386 36084 ft 499 kts 37°
2026-05-06 20:05 56.30743 0.98511 36097 ft 499 kts 37°
2026-05-06 20:05 56.36020 1.06675 36084 ft 500 kts 37°
2026-05-06 20:06 56.41293 1.14864 36089 ft 500 kts 37°
2026-05-06 20:06 56.46564 1.23080 36090 ft 503 kts 37°
2026-05-06 20:07 56.51854 1.31360 36090 ft 503 kts 37°
2026-05-06 20:07 56.57149 1.39676 36115 ft 503 kts 37°
2026-05-06 20:08 56.62453 1.48040 36088 ft 505 kts 37°
2026-05-06 20:08 56.67715 1.56370 36092 ft 505 kts 37°
2026-05-06 20:09 56.73003 1.64774 36088 ft 505 kts 37°
2026-05-06 20:09 56.78290 1.73208 36089 ft 505 kts 37°
2026-05-06 20:10 56.83592 1.81700 36104 ft 507 kts 37°
2026-05-06 20:10 56.88902 1.90239 36089 ft 508 kts 37°
2026-05-06 20:11 56.94185 1.98766 36090 ft 508 kts 38°
2026-05-06 20:11 56.99486 2.07357 36090 ft 509 kts 38°
2026-05-06 20:12 57.04780 2.15971 36081 ft 509 kts 38°
2026-05-06 20:12 57.10071 2.24614 36094 ft 510 kts 38°
2026-05-06 20:13 57.15381 2.33322 36077 ft 511 kts 38°
2026-05-06 20:13 57.20696 2.42074 36070 ft 512 kts 38°
2026-05-06 20:14 57.26004 2.50849 36068 ft 512 kts 38°
2026-05-06 20:14 57.31308 2.59654 36069 ft 512 kts 38°
2026-05-06 20:15 57.35707 2.66984 36094 ft 512 kts 38°
2026-05-06 20:15 57.41029 2.75882 36065 ft 515 kts 38°
2026-05-06 20:16 57.46355 2.84827 36074 ft 515 kts 38°
2026-05-06 20:16 57.51635 2.93729 36089 ft 515 kts 38°
2026-05-06 20:17 57.56939 3.02708 36081 ft 515 kts 38°
2026-05-06 20:17 57.62245 3.11731 36087 ft 516 kts 38°
2026-05-06 20:18 57.67558 3.20798 36077 ft 518 kts 38°
2026-05-06 20:18 57.72866 3.29899 36078 ft 518 kts 38°
2026-05-06 20:19 57.78176 3.39036 36080 ft 518 kts 39°
2026-05-06 20:19 57.83472 3.48191 36080 ft 518 kts 39°
2026-05-06 20:20 57.88759 3.57368 36089 ft 520 kts 39°
2026-05-06 20:20 57.93864 3.67078 36080 ft 523 kts 43°
2026-05-06 20:21 57.98817 3.77123 36074 ft 523 kts 43°
2026-05-06 20:21 58.03780 3.87163 36076 ft 523 kts 43°
2026-05-06 20:22 58.08727 3.97260 36074 ft 523 kts 43°
2026-05-06 20:22 58.13669 4.07364 36112 ft 523 kts 44°
2026-05-06 20:23 58.18616 4.17537 36077 ft 525 kts 44°
2026-05-06 20:23 58.23569 4.27761 36075 ft 525 kts 44°
2026-05-06 20:24 58.28499 4.37986 36065 ft 525 kts 44°
2026-05-06 20:24 58.33428 4.48253 36062 ft 525 kts 44°
2026-05-06 20:25 58.38339 4.58529 36057 ft 525 kts 44°
2026-05-06 20:25 58.43256 4.68862 36055 ft 526 kts 44°
2026-05-06 20:26 58.48171 4.79240 36055 ft 527 kts 44°
2026-05-06 20:26 58.53046 4.89578 36058 ft 527 kts 44°
2026-05-06 20:27 58.57975 5.00078 36054 ft 527 kts 44°
2026-05-06 20:27 58.62877 5.10569 36061 ft 527 kts 45°
2026-05-06 20:28 58.67729 5.21000 36061 ft 527 kts 45°
2026-05-06 20:28 58.72610 5.31540 36053 ft 527 kts 45°
2026-05-06 20:29 58.77483 5.42113 36054 ft 527 kts 45°
2026-05-06 20:29 58.82348 5.52714 36055 ft 528 kts 45°
2026-05-06 20:30 58.89460 5.68996 36078 ft 530 kts 50°
2026-05-06 20:31 58.93853 5.80489 36081 ft 533 kts 50°
2026-05-06 20:31 58.98288 5.91994 36076 ft 532 kts 50°
2026-05-06 20:32 59.02667 6.03493 36061 ft 533 kts 51°
2026-05-06 20:32 59.07072 6.15075 36053 ft 532 kts 51°
2026-05-06 20:33 59.11467 6.26704 36050 ft 533 kts 51°
2026-05-06 20:33 59.15858 6.38375 36045 ft 533 kts 51°
2026-05-06 20:34 59.20239 6.50077 36050 ft 535 kts 51°
2026-05-06 20:34 59.24601 6.61792 36048 ft 535 kts 51°
2026-05-06 20:35 59.28977 6.73594 35766 ft 535 kts 51°
2026-05-06 20:35 59.30935 6.79782 35518 ft 537 kts 62°
2026-05-06 20:35 59.32290 6.86593 35195 ft 539 kts 73°
2026-05-06 20:35 59.33001 6.93807 34889 ft 541 kts 85°
2026-05-06 20:36 59.33160 7.01187 34566 ft 542 kts 89°
2026-05-06 20:36 59.33227 7.08566 34241 ft 543 kts 89°
2026-05-06 20:36 59.33268 7.15989 33862 ft 543 kts 90°
2026-05-06 20:36 59.33321 7.23383 33455 ft 543 kts 89°
2026-05-06 20:37 59.33386 7.30690 33053 ft 543 kts 90°
2026-05-06 20:37 59.33440 7.38101 32660 ft 544 kts 90°
2026-05-06 20:37 59.33477 7.45499 32272 ft 543 kts 90°
2026-05-06 20:37 59.33513 7.52881 31878 ft 541 kts 90°
2026-05-06 20:38 59.33553 7.60230 31493 ft 538 kts 90°
2026-05-06 20:38 59.33589 7.67558 31107 ft 535 kts 91°
2026-05-06 20:38 59.33614 7.74822 30730 ft 533 kts 91°
2026-05-06 20:38 59.33635 7.82067 30337 ft 530 kts 92°
2026-05-06 20:39 59.33655 7.89265 29947 ft 527 kts 92°
2026-05-06 20:39 59.33670 7.96421 29506 ft 524 kts 92°
2026-05-06 20:39 59.33681 8.03532 29067 ft 520 kts 92°
2026-05-06 20:39 59.33689 8.10571 28641 ft 511 kts 92°
2026-05-06 20:40 59.33693 8.17453 28208 ft 502 kts 92°
2026-05-06 20:40 59.33692 8.24255 27782 ft 493 kts 92°
2026-05-06 20:40 59.33688 8.30924 27434 ft 485 kts 92°
2026-05-06 20:40 59.33682 8.37486 27005 ft 478 kts 92°
2026-05-06 20:41 59.33672 8.43966 26564 ft 472 kts 92°
2026-05-06 20:41 59.33658 8.50340 26166 ft 465 kts 92°
2026-05-06 20:41 59.33642 8.56634 25757 ft 460 kts 92°
2026-05-06 20:41 59.33624 8.62871 25373 ft 454 kts 92°
2026-05-06 20:42 59.33602 8.68934 24990 ft 449 kts 92°
2026-05-06 20:42 59.33578 8.75025 24614 ft 444 kts 92°
2026-05-06 20:42 59.33552 8.81047 24232 ft 439 kts 92°
2026-05-06 20:42 59.33523 8.86999 23859 ft 435 kts 92°
2026-05-06 20:43 59.33491 8.92900 23483 ft 431 kts 92°
2026-05-06 20:43 59.33458 8.98734 23057 ft 427 kts 92°
2026-05-06 20:43 59.33422 9.04523 22624 ft 423 kts 92°
2026-05-06 20:43 59.33384 9.10261 22190 ft 419 kts 92°
2026-05-06 20:44 59.33344 9.15948 21774 ft 416 kts 92°
2026-05-06 20:44 59.33301 9.21587 21367 ft 412 kts 92°
2026-05-06 20:44 59.33257 9.27185 20965 ft 408 kts 92°
2026-05-06 20:44 59.33210 9.32726 20566 ft 406 kts 92°
2026-05-06 20:45 59.33162 9.38225 20174 ft 403 kts 92°
2026-05-06 20:45 59.33112 9.43629 19793 ft 400 kts 92°
2026-05-06 20:45 59.33060 9.49049 19413 ft 397 kts 92°
2026-05-06 20:45 59.33006 9.54440 19046 ft 395 kts 92°
2026-05-06 20:46 59.32950 9.59798 18666 ft 392 kts 92°
2026-05-06 20:46 59.32892 9.65126 18308 ft 390 kts 92°
2026-05-06 20:46 59.33011 9.70406 17910 ft 387 kts 77°
2026-05-06 20:46 59.33901 9.75305 17520 ft 379 kts 57°
2026-05-06 20:47 59.35495 9.79297 17142 ft 368 kts 37°
2026-05-06 20:47 59.37442 9.82498 16762 ft 363 kts 34°
2026-05-06 20:47 59.39405 9.85562 16380 ft 360 kts 34°
2026-05-06 20:47 59.41357 9.88634 15987 ft 359 kts 35°
2026-05-06 20:48 59.43282 9.91736 15587 ft 357 kts 35°
2026-05-06 20:48 59.45202 9.94836 15209 ft 355 kts 35°
2026-05-06 20:48 59.47110 9.97893 14814 ft 353 kts 35°
2026-05-06 20:48 59.49009 10.00936 14429 ft 351 kts 35°
2026-05-06 20:49 59.50897 10.03974 14093 ft 349 kts 35°
2026-05-06 20:49 59.52767 10.06992 13727 ft 347 kts 36°
2026-05-06 20:49 59.54637 10.10012 13319 ft 346 kts 36°
2026-05-06 20:49 59.56490 10.13008 12912 ft 344 kts 36°
2026-05-06 20:50 59.58342 10.16005 12497 ft 343 kts 36°
2026-05-06 20:50 59.60184 10.18993 12109 ft 341 kts 36°
2026-05-06 20:50 59.62011 10.21960 11716 ft 339 kts 37°
2026-05-06 20:50 59.63805 10.24878 11342 ft 338 kts 37°
2026-05-06 20:51 59.65618 10.27830 10947 ft 336 kts 37°
2026-05-06 20:51 59.67420 10.30769 10568 ft 335 kts 37°
2026-05-06 20:51 59.69210 10.33695 10197 ft 333 kts 37°
2026-05-06 20:51 59.70989 10.36604 9818 ft 331 kts 38°
2026-05-06 20:52 59.72756 10.39499 9416 ft 330 kts 38°
2026-05-06 20:52 59.74514 10.42382 9011 ft 327 kts 38°
2026-05-06 20:52 59.76260 10.45251 8691 ft 323 kts 38°
2026-05-06 20:52 59.77978 10.48080 8430 ft 317 kts 38°
2026-05-06 20:53 59.79667 10.50861 8152 ft 313 kts 39°
2026-05-06 20:53 59.81327 10.53599 7945 ft 306 kts 39°
2026-05-06 20:53 59.82932 10.56251 7935 ft 294 kts 39°
2026-05-06 20:53 59.84472 10.58798 7938 ft 286 kts 39°
2026-05-06 20:54 59.86000 10.61326 7933 ft 285 kts 39°
2026-05-06 20:54 59.87521 10.63847 7940 ft 284 kts 39°
2026-05-06 20:54 59.89040 10.66370 7936 ft 284 kts 39°
2026-05-06 20:54 59.90557 10.68892 7937 ft 284 kts 39°
2026-05-06 20:55 59.92071 10.71410 7937 ft 284 kts 39°
2026-05-06 20:55 59.93588 10.73938 7940 ft 284 kts 39°
2026-05-06 20:55 59.95100 10.76460 7937 ft 284 kts 39°
2026-05-06 20:55 59.96573 10.79082 7933 ft 284 kts 49°
2026-05-06 20:56 59.97482 10.82549 7954 ft 285 kts 77°
2026-05-06 20:56 59.97761 10.86455 7949 ft 284 kts 86°
2026-05-06 20:56 59.97899 10.90405 7879 ft 286 kts 86°
2026-05-06 20:56 59.98069 10.94340 7752 ft 284 kts 84°
2026-05-06 20:57 59.98561 10.98117 7535 ft 282 kts 61°
2026-05-06 20:57 59.99826 11.01044 7308 ft 279 kts 33°
2026-05-06 20:57 60.01599 11.02550 6979 ft 279 kts 13°
2026-05-06 20:57 60.03497 11.03512 6468 ft 287 kts 13°
2026-05-06 20:58 60.05480 11.04440 5812 ft 297 kts 12°
2026-05-06 20:58 60.06826 11.05054 5378 ft 303 kts 12°
2026-05-06 20:58 60.09638 11.05937 4514 ft 310 kts 355°
2026-05-06 20:58 60.11037 11.05357 4241 ft 308 kts 338°
2026-05-06 20:59 60.12782 11.03084 4135 ft 294 kts 313°
2026-05-06 20:59 60.13822 10.99688 4034 ft 284 kts 287°
2026-05-06 20:59 60.13976 10.95833 3936 ft 275 kts 260°
2026-05-06 20:59 60.13237 10.92388 3819 ft 269 kts 232°
2026-05-06 21:00 60.11802 10.90126 3758 ft 262 kts 203°
2026-05-06 21:00 60.10048 10.89566 3747 ft 254 kts 173°
2026-05-06 21:00 60.08431 10.90790 3720 ft 248 kts 143°
2026-05-06 21:00 60.07293 10.93281 3695 ft 240 kts 119°
2026-05-06 21:01 60.06685 10.96277 3686 ft 223 kts 107°
2026-05-06 21:01 60.06409 10.99158 3672 ft 200 kts 89°
2026-05-06 21:01 60.06751 11.01724 3613 ft 188 kts 60°
2026-05-06 21:01 60.07482 11.03812 3606 ft 181 kts 47°
2026-05-06 21:02 60.08394 11.05510 3472 ft 177 kts 31°
2026-05-06 21:02 60.09465 11.06556 3341 ft 167 kts 21°
2026-05-06 21:02 60.10542 11.07361 3143 ft 163 kts 18°
2026-05-06 21:02 60.11604 11.08036 2731 ft 158 kts 11°
2026-05-06 21:03 60.12652 11.08455 2352 ft 150 kts
2026-05-06 21:03 60.13672 11.08823 1957 ft 148 kts 10°
2026-05-06 21:03 60.14674 11.09257 1531 ft 147 kts 11°
2026-05-06 21:03 60.15670 11.09762 1242 ft 143 kts 13°
2026-05-06 21:04 60.16632 11.10249 957 ft 144 kts 14°
2026-05-06 21:04 60.17576 11.10775 747 ft 142 kts 15°
2026-05-06 21:04 60.18474 11.11290 687 ft 120 kts 15°
2026-05-06 21:04 60.19091 11.11643 686 ft 66 kts 18°
2026-05-06 21:05 60.19410 11.11836 684 ft 37 kts 12°
2026-05-06 21:05 60.19608 11.11877 690 ft 21 kts 354°
2026-05-06 21:05 60.19705 11.11713 686 ft 19 kts 288°
2026-05-06 21:05 60.19725 11.11502 691 ft 9 kts 250°
2026-05-06 21:06 60.19690 11.11446 684 ft 7 kts 206°
2026-05-06 21:06 60.19629 11.11402 686 ft 12 kts 196°
2026-05-06 21:06 60.19543 11.11354 683 ft 14 kts 195°
2026-05-06 21:06 60.19465 11.11290 683 ft 9 kts 225°
2026-05-06 21:07 60.19442 11.11180 691 ft 7 kts 251°
2026-05-06 21:07 60.19420 11.11125 688 ft 4 kts 224°
2026-05-06 21:07 60.19403 11.11103 685 ft 2 kts 206°
2026-05-06 21:07 60.19382 11.11089 691 ft 3 kts 198°
2026-05-06 21:08 60.19366 11.11078 689 ft 2 kts 199°
2026-05-06 21:08 60.19353 11.11070 692 ft 0 kts 196°
2026-05-06 21:08 60.19352 11.11069 691 ft 0 kts 196°